Regional Weather Roundup
Issued by NWS Charleston, WV

Home | Current Version | Previous Version | Graphics & Text | Print | Product List | Glossary On
Versions: 1 2 3 4 5 6 7 8 9 10 11 12 13 14 15 16 17 18 19 20 21 22 23 24 25 26 27 28 29 30 31 32 33 34 35 36 37 38 39 40 41 42 43 44 45 46 47 48 49 50
000
ASUS41 KRLX 182010
RWRRLX
West Virginia Regional Weather Roundup
National Weather Service Charleston WV
400 PM EDT THU SEP 18 2014

Note: "fair" indicates few or no clouds below 12,000 feet with no
significant weather and/or obstructions to visibility.

WVZ003-182100-
Northern Panhandle of West Virginia

CITY           SKY/WX    TMP DP  RH WIND       PRES   REMARKS
WHEELING       PTSUNNY   66  46  48 NE13      30.08F
$$

WVZ009-182100-
Northwest West Virginia

CITY           SKY/WX    TMP DP  RH WIND       PRES   REMARKS
PARKERSBURG    MOSUNNY   69  45  41 NE6       30.08F
$$

WVZ006-182100-
Western West Virginia

CITY           SKY/WX    TMP DP  RH WIND       PRES   REMARKS
HUNTINGTON     MOSUNNY   71  51  49 NE6       30.04F
$$

WVZ015-182100-
West Central West Virginia

CITY           SKY/WX    TMP DP  RH WIND       PRES   REMARKS
CHARLESTON     PTSUNNY   70  53  54 E3        30.04F
$$

WVZ031-182100-
North Central West Virginia

CITY           SKY/WX    TMP DP  RH WIND       PRES   REMARKS
CLARKSBURG     SUNNY     70  48  45 N6        30.06F
MORGANTOWN     MOSUNNY   70  46  42 NE9       30.08F
$$

WVZ035-042-045-182100-
South Central West Virginia

CITY           SKY/WX    TMP DP  RH WIND       PRES   REMARKS
BECKLEY        SUNNY     69  47  45 CALM      30.06F
BLUEFIELD      PTSUNNY   72  49  44 NE3       30.07F
LEWISBURG      PTSUNNY   72  49  44 CALM      30.05S
$$

WVZ047-182100-
Northern Mountains of West Virginia

CITY           SKY/WX    TMP DP  RH WIND       PRES   REMARKS
ELKINS         PTSUNNY   71  50  47 NW8       30.06F
$$

WVZ052-182100-
Eastern Panhandle of West Virginia

CITY           SKY/WX    TMP DP  RH WIND       PRES   REMARKS
MARTINSBURG    MOSUNNY   77  46  33 N8        30.02F
PETERSBURG     MOSUNNY   74  43  33 CALM      30.02F
$$


USA.gov is the U.S. government's official web portal to all federal, state and local government web resources and services.